| time (UTC) | temp C | wind direction | speed KPH | gust KPH | rain 1hr cm | rain 24hr cm | rain mn cm | humidity % | barometer mb |
| 20260503072007 | 17 | 110 | 3.2 | 0.0 | 0.00 | 0.00 | 0.00 | 10 | 1016.0 |
| 20260503070507 | 17 | 110 | 3.2 | 0.0 | 0.00 | 0.00 | 0.00 | 10 | 1016.0 |
| 20260503055001 | 17 | 0 | 1.6 | 0.0 | 0.00 | 0.00 | 0.00 | 10 | 1017.0 |
| 20260503053501 | 17 | 0 | 1.6 | 0.0 | 0.00 | 0.00 | 0.00 | 10 | 1017.0 |
| 20260503052000 | 17 | 0 | 1.6 | 0.0 | 0.00 | 0.00 | 0.00 | 10 | 1018.0 |
| 20260503050459 | 17 | 0 | 1.6 | 0.0 | 0.00 | 0.00 | 0.00 | 10 | 1018.0 |
| 20260503044958 | 17 | 0 | 3.2 | 0.0 | 0.00 | 0.00 | 0.00 | 10 | 1018.0 |
| 20260503043458 | 17 | 0 | 3.2 | 0.0 | 0.00 | 0.00 | 0.00 | 10 | 1018.0 |
| 20260503041956 | 17 | 0 | 3.2 | 0.0 | 0.00 | 0.00 | 0.00 | 10 | 1018.0 |
| 20260503040456 | 18 | 0 | 3.2 | 0.0 | 0.00 | 0.00 | 0.00 | 10 | 1018.0 |
| 20260503034955 | 18 | 0 | 3.2 | 0.0 | 0.00 | 0.00 | 0.00 | 10 | 1018.0 |
| 20260503033451 | 15 | 0 | 3.2 | 0.0 | 0.00 | 0.00 | 0.00 | 93 | 1018.0 |
| 20260503031950 | 15 | 46 | 1.6 | 1.6 | 0.00 | 0.00 | 0.00 | 92 | 1017.0 |
| 20260503030448 | 15 | 0 | 1.6 | 0.0 | 0.00 | 0.00 | 0.00 | 93 | 1017.0 |
| 20260503024948 | 15 | 0 | 3.2 | 0.0 | 0.00 | 0.00 | 0.00 | 94 | 1017.0 |
| 20260503023448 | 16 | 0 | 1.6 | 0.0 | 0.00 | 0.00 | 0.00 | 93 | 1017.0 |
| 20260503021947 | 16 | 0 | 3.2 | 0.0 | 0.00 | 0.00 | 0.00 | 94 | 1016.0 |
| 20260503020446 | 15 | 92 | 3.2 | 1.6 | 0.00 | 0.00 | 0.00 | 92 | 1016.0 |
| 20260503014946 | 15 | 92 | 3.2 | 1.6 | 0.00 | 0.00 | 0.00 | 92 | 1016.0 |
| 20260503013445 | 15 | 92 | 3.2 | 1.6 | 0.00 | 0.00 | 0.00 | 92 | 1016.0 |
| 20260503011945 | 15 | 100 | 4.8 | 0.0 | 0.00 | 0.00 | 0.00 | 93 | 1016.0 |
| 20260503010445 | 15 | 100 | 4.8 | 0.0 | 0.00 | 0.00 | 0.00 | 94 | 1016.0 |
| 20260503004943 | 16 | 100 | 4.8 | 0.0 | 0.00 | 0.00 | 0.00 | 95 | 1016.0 |
| 20260503003443 | 16 | 100 | 4.8 | 0.0 | 0.00 | 0.00 | 0.00 | 94 | 1016.0 |
| 20260503001942 | 17 | 100 | 4.8 | 0.0 | 0.00 | 0.00 | 0.00 | 95 | 1015.0 |
| 20260502234940 | 15 | 91 | 1.6 | 1.6 | 0.00 | 0.00 | 0.00 | 93 | 1015.0 |
| 20260502233439 | 16 | 91 | 3.2 | 3.2 | 0.00 | 0.00 | 0.00 | 93 | 1015.0 |
| 20260502231938 | 15 | 0 | 1.6 | 0.0 | 0.00 | 0.00 | 0.00 | 94 | 1014.0 |
| 20260502230438 | 16 | 0 | 1.6 | 0.0 | 0.00 | 0.00 | 0.00 | 95 | 1014.0 |
| 20260502224936 | 16 | 0 | 1.6 | 0.0 | 0.00 | 0.00 | 0.00 | 95 | 1014.0 |
| 20260502223435 | 17 | 0 | 1.6 | 0.0 | 0.00 | 0.00 | 0.00 | 95 | 1014.0 |
| 20260502221935 | 17 | 0 | 1.6 | 0.0 | 0.00 | 0.00 | 0.00 | 95 | 1013.0 |
| 20260502220434 | 16 | 90 | 4.8 | 0.0 | 0.00 | 0.00 | 0.00 | 95 | 1013.0 |
| 20260502214932 | 17 | 90 | 4.8 | 0.0 | 0.00 | 0.00 | 0.00 | 95 | 1013.0 |
| 20260502213432 | 17 | 90 | 4.8 | 0.0 | 0.00 | 0.00 | 0.00 | 95 | 1013.0 |
| 20260502211930 | 17 | 90 | 4.8 | 0.0 | 0.00 | 0.00 | 0.00 | 95 | 1013.0 |
| 20260502210426 | 17 | 110 | 4.8 | 0.0 | 0.00 | 0.00 | 0.00 | 95 | 1013.0 |
| 20260502204926 | 17 | 110 | 4.8 | 0.0 | 0.00 | 0.00 | 0.00 | 93 | 1013.0 |
| 20260502203420 | 17 | 0 | 3.2 | 0.0 | 0.00 | 0.00 | 0.00 | 92 | 1013.0 |
| 20260502201920 | 18 | 0 | 3.2 | 0.0 | 0.00 | 0.00 | 0.00 | 92 | 1013.0 |
| 20260502200419 | 17 | 300 | 8.0 | 0.0 | 0.00 | 0.00 | 0.00 | 90 | 1013.0 |
| 20260502194914 | 18 | 300 | 8.0 | 0.0 | 0.00 | 0.00 | 0.00 | 90 | 1013.0 |
| 20260502193408 | 18 | 300 | 8.0 | 0.0 | 0.00 | 0.00 | 0.00 | 89 | 1013.0 |
| 20260502191907 | 17 | 300 | 8.0 | 0.0 | 0.00 | 0.00 | 0.00 | 87 | 1013.0 |
| 20260502190406 | 18 | 290 | 8.0 | 0.0 | 0.00 | 0.00 | 0.00 | 84 | 1013.0 |
| 20260502184906 | 18 | 290 | 8.0 | 0.0 | 0.00 | 0.00 | 0.00 | 84 | 1013.0 |
| 20260502183405 | 17 | 290 | 12.9 | 0.0 | 0.00 | 0.00 | 0.00 | 85 | 1013.0 |
| 20260502181904 | 18 | 290 | 12.9 | 0.0 | 0.00 | 0.00 | 0.00 | 83 | 1014.0 |
| 20260502180404 | 18 | 290 | 12.9 | 0.0 | 0.00 | 0.00 | 0.00 | 82 | 1014.0 |
| 20260502170358 | 21 | 290 | 14.5 | 0.0 | 0.00 | 0.00 | 0.00 | 81 | 1015.0 |
| 20260502163350 | 22 | 290 | 14.5 | 0.0 | 0.00 | 0.00 | 0.00 | 82 | 1015.0 |
| 20260502161849 | 18 | 253 | 1.6 | 4.8 | 0.00 | 0.00 | 0.00 | 79 | 1015.0 |
| 20260502160349 | 19 | 253 | 3.2 | 4.8 | 0.00 | 0.00 | 0.00 | 79 | 1015.0 |
| 20260502151843 | 19 | 292 | 3.2 | 0.0 | 0.00 | 0.00 | 0.00 | 80 | 1015.0 |
| 20260502150342 | 18 | 0 | 1.6 | 0.0 | 0.00 | 0.00 | 0.00 | 79 | 1015.0 |
| 20260502130336 | 18 | 110 | 4.8 | 0.0 | 0.00 | 0.00 | 0.00 | 87 | 1015.0 |
| 20260502123335 | 18 | 110 | 4.8 | 0.0 | 0.00 | 0.00 | 0.00 | 83 | 1015.0 |
| 20260502121833 | 17 | 110 | 4.8 | 0.0 | 0.00 | 0.00 | 0.00 | 85 | 1015.0 |
| 20260502120332 | 18 | 0 | 3.2 | 0.0 | 0.00 | 0.00 | 0.00 | 87 | 1015.0 |
| 20260502114832 | 17 | 0 | 3.2 | 0.0 | 0.00 | 0.00 | 0.00 | 86 | 1015.0 |
| 20260502113331 | 18 | 0 | 3.2 | 0.0 | 0.00 | 0.00 | 0.00 | 86 | 1015.0 |
| 20260502111830 | 17 | 120 | 4.8 | 0.0 | 0.00 | 0.00 | 0.00 | 85 | 1015.0 |
| 20260502110330 | 17 | 120 | 4.8 | 0.0 | 0.00 | 0.00 | 0.00 | 84 | 1015.0 |
| 20260502104827 | 17 | 120 | 4.8 | 0.0 | 0.00 | 0.00 | 0.00 | 83 | 1015.0 |
| 20260502103326 | 18 | 120 | 4.8 | 0.0 | 0.00 | 0.00 | 0.00 | 82 | 1015.0 |
| 20260502101825 | 18 | 120 | 4.8 | 0.0 | 0.00 | 0.00 | 0.00 | 82 | 1015.0 |
| 20260502100325 | 18 | 0 | 3.2 | 0.0 | 0.00 | 0.00 | 0.00 | 82 | 1015.0 |
| 20260502090321 | 14 | 0 | 3.2 | 0.0 | 0.00 | 0.00 | 0.00 | 85 | 1015.0 |